Stevensville, MD

11:41 PM EDT on May 22, 2017 (GMT -0400)
Stevensville

Weather History for KW29 - February, 2013

Change the Weather History Date:

Monday, February 25, 2013

  Actual Average (KESN) Record (KESN)
Temperature  
Mean Temperature 38 °F -  
Max Temperature 44 °F 53 °F 73 °F (2017)
Min Temperature 32 °F 30 °F 13 °F (1967)
Degree Days  
Heating Degree Days 27    
Moisture  
Dew Point 25 °F    
Average Humidity 63    
Maximum Humidity 93    
Minimum Humidity 43    
Precipitation  
Precipitation 0.00 in - - ()
Sea Level Pressure  
Sea Level Pressure 30.18 in    
Wind  
Wind Speed 8 mph (NW)    
Max Wind Speed 15 mph    
Max Gust Speed 20 mph    
Visibility 10 miles    
Events      
Averages and records for this station are not official NWS values.
T = Trace of Precipitation, MM = Missing Value Source: NWS Daily Summary

Daily Weather History Graph

Daily Weather History Graph

Search for Another Location

Airport or City:

Trip Planner

Search our weather history database for the weather conditions in past years. The results will help you decide how hot, cold, wet, or windy it might be!

Date:

Astronomy

Feb. 25, 2013 Rise Set
Actual Time 6:43 AM EST 5:54 PM EST
Civil Twilight 6:16 AM EST 6:20 PM EST
Nautical Twilight 5:45 AM EST 6:51 PM EST
Astronomical Twilight 5:14 AM EST 7:22 PM EST
Moon 6:04 PM EST (2/25) 6:12 AM EST (2/25)
Length of Visible Light 12h 04m
Length of Day
11h 10m
Full, 100% of the Moon is Illuminated
Feb 25
Full
Feb 25
Full
Mar 4
Last Quarter
Mar 11
New
Mar 19
First Quarter

Hourly Weather History & Observations

Time (EST) Temp. Windchill Dew Point Humidity Pressure Visibility Wind Dir Wind Speed Gust Speed Precip Events Conditions
12:18 AM 33.8 °F 24.3 °F 23.0 °F 65% 30.10 in 10.0 mi WNW 13.8 mph 19.6 mph N/A   Clear
12:38 AM 33.8 °F 24.3 °F 23.0 °F 65% 30.11 in 10.0 mi WNW 13.8 mph 19.6 mph N/A   Clear
12:59 AM 33.8 °F 23.9 °F 23.0 °F 65% 30.11 in 10.0 mi WNW 15.0 mph - N/A   Clear
1:19 AM 33.8 °F 25.3 °F 23.0 °F 65% 30.12 in 10.0 mi NW 11.5 mph - N/A   Clear
1:59 AM 33.8 °F 25.3 °F 23.0 °F 65% 30.12 in 10.0 mi NW 11.5 mph 18.4 mph N/A   Clear
2:19 AM 32.0 °F 23.6 °F 23.0 °F 69% 30.12 in 10.0 mi NW 10.4 mph - N/A   Clear
2:59 AM 32.0 °F 24.2 °F 23.0 °F 69% 30.12 in 10.0 mi NW 9.2 mph - N/A   Clear
3:19 AM 32.0 °F 24.2 °F 23.0 °F 69% 30.11 in 10.0 mi NW 9.2 mph - N/A   Clear
3:39 AM 32.0 °F 22.5 °F 23.0 °F 69% 30.12 in 10.0 mi NW 12.7 mph 16.1 mph N/A   Clear
3:59 AM 32.0 °F 24.2 °F 23.0 °F 69% 30.14 in 10.0 mi WNW 9.2 mph - N/A   Clear
4:19 AM 32.0 °F 24.2 °F 23.0 °F 69% 30.13 in 10.0 mi NW 9.2 mph - N/A   Clear
4:39 AM 32.0 °F 24.8 °F 23.0 °F 69% 30.13 in 10.0 mi NW 8.1 mph - N/A   Clear
4:59 AM 32.0 °F 25.6 °F 23.0 °F 69% 30.13 in 10.0 mi NW 6.9 mph - N/A   Clear
5:19 AM 32.0 °F 24.8 °F 23.0 °F 69% 30.13 in 10.0 mi NW 8.1 mph - N/A   Clear
5:39 AM 32.0 °F 24.8 °F 23.0 °F 69% 30.15 in 10.0 mi NW 8.1 mph - N/A   Clear
5:59 AM 32.0 °F 25.6 °F 23.0 °F 69% 30.16 in 10.0 mi NW 6.9 mph - N/A   Clear
6:19 AM 32.0 °F 26.4 °F 23.0 °F 69% 30.16 in 10.0 mi WNW 5.8 mph - N/A   Clear
6:59 AM 32.0 °F 25.6 °F 23.0 °F 69% 30.18 in 10.0 mi WNW 6.9 mph - N/A   Clear
7:19 AM 32.0 °F 24.8 °F 23.0 °F 69% 30.18 in 10.0 mi WNW 8.1 mph - N/A   Clear
7:59 AM 33.8 °F 27.0 °F 23.0 °F 65% 30.18 in 10.0 mi WNW 8.1 mph - N/A   Clear
8:19 AM 33.8 °F 27.0 °F 23.0 °F 65% 30.18 in 10.0 mi NW 8.1 mph - N/A   Clear
8:39 AM 35.6 °F 30.7 °F 23.0 °F 60% 30.18 in 10.0 mi NW 5.8 mph - N/A   Clear
8:59 AM 35.6 °F 29.9 °F 23.0 °F 60% 30.20 in 10.0 mi NW 6.9 mph - N/A   Clear
9:19 AM 35.6 °F 28.0 °F 23.0 °F 60% 30.20 in 10.0 mi NNW 10.4 mph - N/A   Clear
9:40 AM 37.4 °F 29.8 °F 23.0 °F 56% 30.21 in 10.0 mi NNW 11.5 mph - N/A   Clear
10:00 AM 37.4 °F 29.8 °F 23.0 °F 56% 30.20 in 10.0 mi North 11.5 mph - N/A   Clear
10:20 AM 39.2 °F 33.6 °F 23.0 °F 52% 30.21 in 10.0 mi NNW 8.1 mph - N/A   Clear
10:40 AM 37.4 °F 30.8 °F 23.0 °F 56% 30.21 in 10.0 mi NNW 9.2 mph - N/A   Clear
11:00 AM 39.2 °F 33.6 °F 24.8 °F 56% 30.20 in 10.0 mi NW 8.1 mph - N/A   Clear
11:20 AM 39.2 °F 33.6 °F 24.8 °F 56% 30.20 in 10.0 mi NW 8.1 mph - N/A   Clear
11:40 AM 41.0 °F 36.4 °F 24.8 °F 53% 30.20 in 10.0 mi NNW 6.9 mph - N/A   Clear
12:00 PM 41.0 °F 37.1 °F 23.0 °F 49% 30.20 in 10.0 mi North 5.8 mph - N/A   Clear
12:20 PM 41.0 °F 37.1 °F 23.0 °F 49% 30.20 in 10.0 mi NNW 5.8 mph - N/A   Clear
12:40 PM 42.8 °F 41.1 °F 23.0 °F 46% 30.20 in 10.0 mi NW 3.5 mph - N/A   Clear
1:00 PM 42.8 °F 40.1 °F 23.0 °F 46% 30.20 in 10.0 mi North 4.6 mph - N/A   Clear
1:20 PM 42.8 °F 39.3 °F 23.0 °F 46% 30.19 in 10.0 mi NNW 5.8 mph - N/A   Clear
1:40 PM 42.8 °F 40.1 °F 23.0 °F 46% 30.20 in 10.0 mi NNW 4.6 mph - N/A   Clear
2:00 PM 42.8 °F 39.3 °F 23.0 °F 46% 30.19 in 10.0 mi NNW 5.8 mph - N/A   Clear
2:20 PM 44.6 °F 43.1 °F 23.0 °F 43% 30.18 in 10.0 mi NW 3.5 mph - N/A   Clear
2:40 PM 44.6 °F 42.2 °F 23.0 °F 43% 30.18 in 10.0 mi NNW 4.6 mph - N/A   Clear
3:00 PM 44.6 °F 41.4 °F 23.0 °F 43% 30.18 in 10.0 mi NW 5.8 mph - N/A   Clear
3:20 PM 44.6 °F 42.2 °F 23.0 °F 43% 30.17 in 10.0 mi North 4.6 mph - N/A   Clear
3:40 PM 44.6 °F 43.1 °F 23.0 °F 43% 30.17 in 10.0 mi NNW 3.5 mph - N/A   Clear
4:00 PM 44.6 °F 42.2 °F 23.0 °F 43% 30.17 in 10.0 mi North 4.6 mph - N/A   Clear
4:20 PM 44.6 °F 43.1 °F 23.0 °F 43% 30.18 in 10.0 mi NNW 3.5 mph - N/A   Clear
4:40 PM 44.6 °F - 23.0 °F 43% 30.18 in 10.0 mi Calm Calm - N/A   Clear
5:00 PM 44.6 °F - 23.0 °F 43% 30.18 in 10.0 mi Calm Calm - N/A   Clear
5:20 PM 42.8 °F 40.1 °F 23.0 °F 46% 30.19 in 10.0 mi East 4.6 mph - N/A   Clear
5:40 PM 42.8 °F 41.1 °F 23.0 °F 46% 30.19 in 10.0 mi East 3.5 mph - N/A   Clear
6:00 PM 42.8 °F - 24.8 °F 49% 30.20 in 10.0 mi Calm Calm - N/A   Clear
6:21 PM 41.0 °F - 26.6 °F 57% 30.20 in 10.0 mi Calm Calm - N/A   Clear
6:41 PM 37.4 °F - 26.6 °F 65% 30.20 in 10.0 mi Calm Calm - N/A   Clear
7:01 PM 37.4 °F - 33.8 °F 87% 30.21 in 10.0 mi Calm Calm - N/A   Clear
7:21 PM 35.6 °F - 33.8 °F 93% 30.22 in 10.0 mi Calm Calm - N/A   Clear
7:41 PM 35.6 °F - 32.0 °F 87% 30.23 in 10.0 mi Calm Calm - N/A   Clear
8:01 PM 35.6 °F - 28.4 °F 75% 30.23 in 10.0 mi Calm Calm - N/A   Clear
8:21 PM 35.6 °F - 28.4 °F 75% 30.23 in 10.0 mi Calm Calm - N/A   Clear
8:41 PM 35.6 °F - 28.4 °F 75% 30.23 in 10.0 mi Calm Calm - N/A   Clear
9:01 PM 33.8 °F - 28.4 °F 81% 30.23 in 10.0 mi Calm Calm - N/A   Clear
9:21 PM 33.8 °F 30.8 °F 30.2 °F 87% 30.23 in 10.0 mi ESE 3.5 mph - N/A   Clear
9:41 PM 33.8 °F - 30.2 °F 87% 30.22 in 10.0 mi Calm Calm - N/A   Clear
10:01 PM 33.8 °F 30.8 °F 30.2 °F 87% 30.23 in 10.0 mi SE 3.5 mph - N/A   Clear
10:21 PM 33.8 °F 30.8 °F 32.0 °F 93% 30.22 in 10.0 mi SE 3.5 mph - N/A   Clear
10:41 PM 33.8 °F 30.8 °F 32.0 °F 93% 30.22 in 10.0 mi SE 3.5 mph - N/A   Clear
11:01 PM 33.8 °F 30.8 °F 30.2 °F 87% 30.23 in 10.0 mi SE 3.5 mph - N/A   Clear
11:21 PM 33.8 °F 30.8 °F 30.2 °F 87% 30.21 in 10.0 mi East 3.5 mph - N/A   Clear
11:41 PM 33.8 °F 30.8 °F 30.2 °F 87% 30.23 in 10.0 mi South 3.5 mph - N/A   Clear